ELECTRON KICK STAGE R/B (54024 NORAD) Tracking and Keplerian Element Data

This shows tracking and keplerian element data for the satellite.

Feedback or suggestion? Click here.




ElementValue
Catalog54024
NameELECTRON KICK STAGE R/B
Epoch Orbit394
Epoch Day307.58249479
Epoch Year2022
RAAN307.5106
Inclination98.2943
Eccentricity0.0139857
Argument of Perigee296.7118
Mean Anonmoly61.9829
Mean Motion14.727882
Decay Rate4.079E-05
L11 54024U 22127B 22307.58249479 .00004079 00000+0 55477-3 0 9991
L22 54024 98.2943 307.5106 0139857 296.7118 61.9829 14.72788200 3941



Live tracking and technical data element details for ELECTRON KICK STAGE R/B (NORAD 54024). ELECTRON KICK STAGE R/B can be tracked NOW for your location showing map with azimuth and elevation plus other details from your city location.







IsCatalogInMostPopularTable: catalog: 54024, numindb: 9
Update: records affected: 1



GetName: 54024 ELECTRON KICK STAGE R/B

Hit Count: updated at: Mon, 05 Jun 2023 00:36:43 GMT